Simultaneous Nadir Overpasses (SNOs) Predictions

Prediction of SNOs between NOAA-19 and TERRA Satellite Orbit:

Table of predicted SNOs for the next 14.0 days since TLE Epoch: 10/19/2024
Index Date (NOAA-19) Time (NOAA-19) Lat,Lon (NOAA-19) SZA (NOAA-19 ) Date (TERRA) Time (TERRA) Lat,Lon (TERRA) SZA (TERRA ) Distance(km) Time Diff (sec)
1 10/20/2024 19:51:07 -66.85, 46.04 102.01 10/20/2024 19:51:41 -66.85, 46.04 102.03 0.14 34
2 10/20/2024 20:41:20 69.16,-143.67 80.08 10/20/2024 20:40:18 69.17,-143.63 80.10 1.95 62
3 10/22/2024 22:50:14 -65.34, -0.25 102.61 10/22/2024 22:51:12 -65.35, -0.23 102.63 1.33 58
4 10/22/2024 23:40:17 68.24, 170.43 79.99 10/22/2024 23:39:39 68.25, 170.45 80.00 0.80 38
5 10/25/2024 02:39:18 67.07, 124.34 79.66 10/25/2024 02:39:03 67.07, 124.34 79.66 0.23 15
6 10/27/2024 05:38:20 65.81, 78.29 79.25 10/27/2024 05:38:27 65.81, 78.29 79.24 0.12 7
7 10/29/2024 08:37:26 64.29, 32.13 78.60 10/29/2024 08:37:54 64.29, 32.13 78.59 0.42 28
8 10/29/2024 09:27:23 -67.63,-156.94 98.42 10/29/2024 09:26:18 -67.62,-156.99 98.42 2.73 65
9 10/31/2024 11:36:35 62.56, -14.05 77.78 10/31/2024 11:37:23 62.57, -14.03 77.75 1.16 48



Historial Predications of SNOs between NOAA-19 and TERRA
